TimeMDT,TemperatureF,Dew PointF,Humidity,Sea Level PressureIn,VisibilityMPH,Wind Direction,Wind SpeedMPH,Gust SpeedMPH,PrecipitationIn,Events,Conditions,WindDirDegrees,DateUTC
12:53 AM,61.0,59.0,93,29.70,8.0,Variable,3.5,-,N/A,,Scattered Clouds,0,2013-05-27 06:53:00
1:01 AM,62.6,60.8,94,29.82,8.0,SSE,5.8,-,N/A,,Mostly Cloudy,160,2013-05-27 07:01:00
1:53 AM,63.0,61.0,93,29.69,6.0,SE,6.9,-,N/A,,Overcast,130,2013-05-27 07:53:00
2:53 AM,63.0,61.0,93,29.67,6.0,East,4.6,-,N/A,,Overcast,100,2013-05-27 08:53:00
3:53 AM,64.0,62.1,93,29.65,6.0,East,4.6,-,N/A,,Overcast,90,2013-05-27 09:53:00
4:19 AM,62.6,60.8,94,29.78,4.0,Calm,Calm,-,N/A,,Partly Cloudy,0,2013-05-27 10:19:00
4:35 AM,62.6,60.8,94,29.79,2.5,Calm,Calm,-,N/A,,Mostly Cloudy,0,2013-05-27 10:35:00
4:53 AM,60.1,59.0,96,29.66,1.2,WNW,4.6,-,N/A,,Mostly Cloudy,300,2013-05-27 10:53:00
4:59 AM,60.8,59.0,94,29.79,0.2,WNW,4.6,-,N/A,Fog,Fog,290,2013-05-27 10:59:00
5:14 AM,60.8,60.8,100,29.80,1.0,Calm,Calm,-,N/A,,Overcast,0,2013-05-27 11:14:00
5:20 AM,60.8,60.8,100,29.79,3.0,NNW,5.8,-,N/A,,Overcast,340,2013-05-27 11:20:00
5:53 AM,61.0,60.1,97,29.66,4.0,NNE,6.9,-,N/A,,Overcast,30,2013-05-27 11:53:00
6:53 AM,61.0,59.0,93,29.67,6.0,NE,9.2,-,N/A,,Mostly Cloudy,50,2013-05-27 12:53:00
7:53 AM,63.0,59.0,87,29.68,8.0,NE,11.5,-,N/A,,Overcast,40,2013-05-27 13:53:00
8:53 AM,66.0,60.1,81,29.69,10.0,East,10.4,-,N/A,,Overcast,80,2013-05-27 14:53:00
9:53 AM,66.9,59.0,76,29.68,10.0,East,9.2,-,N/A,,Overcast,100,2013-05-27 15:53:00
10:39 AM,68.0,57.2,68,29.80,10.0,ESE,6.9,-,N/A,,Scattered Clouds,120,2013-05-27 16:39:00
10:53 AM,69.1,57.0,65,29.67,10.0,East,6.9,-,N/A,,Partly Cloudy,100,2013-05-27 16:53:00
11:53 AM,75.0,55.9,51,29.66,10.0,SSW,5.8,-,N/A,,Clear,200,2013-05-27 17:53:00
12:53 PM,77.0,53.1,43,29.64,10.0,Variable,4.6,-,N/A,,Clear,0,2013-05-27 18:53:00
1:53 PM,80.1,48.9,34,29.59,10.0,WSW,8.1,-,N/A,,Clear,240,2013-05-27 19:53:00
2:53 PM,77.0,48.0,36,29.61,10.0,NW,5.8,-,N/A,,Clear,310,2013-05-27 20:53:00
3:53 PM,77.0,48.9,37,29.57,10.0,South,5.8,-,N/A,,Clear,180,2013-05-27 21:53:00
4:53 PM,73.9,39.0,28,29.58,10.0,SSE,11.5,-,N/A,,Clear,150,2013-05-27 22:53:00
5:53 PM,69.1,42.1,38,29.59,10.0,SSE,12.7,-,N/A,,Clear,150,2013-05-27 23:53:00
6:36 PM,69.8,42.8,38,29.71,10.0,SSE,4.6,-,N/A,Thunderstorm,Partly Cloudy,150,2013-05-28 00:36:00
6:53 PM,71.1,43.0,36,29.62,10.0,NE,17.3,23.0,N/A,Thunderstorm,Partly Cloudy,40,2013-05-28 00:53:00
7:17 PM,71.6,41.0,33,29.75,10.0,SE,10.4,-,N/A,,Clear,140,2013-05-28 01:17:00
7:53 PM,66.9,44.1,44,29.65,10.0,SSE,10.4,-,N/A,,Clear,150,2013-05-28 01:53:00
8:53 PM,61.0,46.0,58,29.66,10.0,SSE,4.6,-,N/A,,Clear,150,2013-05-28 02:53:00
9:53 PM,59.0,46.0,62,29.65,10.0,South,8.1,-,N/A,,Clear,170,2013-05-28 03:53:00
10:53 PM,57.0,45.0,64,29.64,10.0,SSE,4.6,-,N/A,,Clear,160,2013-05-28 04:53:00
11:53 PM,53.1,45.0,74,29.66,10.0,ENE,9.2,-,N/A,,Clear,60,2013-05-28 05:53:00